Munising, MI

9:17 AM EDT on June 27, 2017 (GMT -0400)
Munising

Weather History for KP53 - January, 2013

Change the Weather History Date:

Sunday, January 20, 2013

  Actual Average (KISQ) Record (KISQ)
Temperature  
Mean Temperature 11 °F -  
Max Temperature 19 °F 25 °F 42 °F (1986)
Min Temperature 3 °F 7 °F -20 °F (1984)
Degree Days  
Heating Degree Days 54    
Moisture  
Dew Point 2 °F    
Average Humidity 67    
Maximum Humidity 77    
Minimum Humidity 55    
Precipitation  
Precipitation 0.12 in - - ()
Sea Level Pressure  
Sea Level Pressure 30.03 in    
Wind  
Wind Speed 22 mph (WNW)    
Max Wind Speed 39 mph    
Max Gust Speed 50 mph    
Averages and records for this station are not official NWS values.
T = Trace of Precipitation, MM = Missing Value Source: NWS Daily Summary

Daily Weather History Graph

Daily Weather History Graph

Search for Another Location

Airport or City:

Trip Planner

Search our weather history database for the weather conditions in past years. The results will help you decide how hot, cold, wet, or windy it might be!

Date:

Astronomy

Jan. 20, 2013 Rise Set
Actual Time 8:22 AM EST 5:33 PM EST
Civil Twilight 7:48 AM EST 6:07 PM EST
Nautical Twilight 7:11 AM EST 6:44 PM EST
Astronomical Twilight 6:36 AM EST 7:19 PM EST
Moon 12:35 PM EST (1/20) 2:52 AM EST (1/20)
Length of Visible Light 10h 18m
Length of Day
9h 11m
Waxing Gibbous, 66% of the Moon is Illuminated
Jan 20
Waxing Gibbous
Jan 26
Full
Feb 3
Last Quarter
Feb 10
New
Feb 17
First Quarter

Hourly Weather History & Observations

Time (EST) Temp. Windchill Dew Point Humidity Pressure Visibility Wind Dir Wind Speed Gust Speed Precip Events Conditions
12:56 AM 19.0 °F -0.8 °F 10.9 °F 71% 29.64 in - NNW 33.4 mph 43.7 mph N/A   Unknown
1:56 AM 18.0 °F -1.1 °F 10.0 °F 71% 29.69 in - NNW 28.8 mph 48.3 mph N/A   Unknown
2:56 AM 18.0 °F -3.6 °F 10.0 °F 71% 29.76 in - North 39.1 mph 49.5 mph N/A   Unknown
3:56 AM 17.1 °F -2.7 °F 10.0 °F 74% 29.83 in - NNW 29.9 mph 43.7 mph N/A   Unknown
4:56 AM 17.1 °F -1.7 °F 7.0 °F 65% 29.89 in - North 26.5 mph 41.4 mph N/A   Unknown
5:56 AM 16.0 °F -2.1 °F 10.0 °F 77% 29.93 in - North 23.0 mph 41.4 mph N/A   Unknown
6:56 AM 15.1 °F -4.7 °F 8.1 °F 74% 29.96 in - North 27.6 mph 38.0 mph 0.02 in   Unknown
7:56 AM 15.1 °F -2.9 °F 9.0 °F 77% 30.00 in - NNW 21.9 mph 34.5 mph N/A   Unknown
8:56 AM 14.0 °F -2.0 °F 8.1 °F 77% 30.06 in - NW 16.1 mph 34.5 mph N/A   Unknown
9:56 AM 12.0 °F -6.0 °F 3.9 °F 70% 30.10 in - NW 19.6 mph 28.8 mph 0.01 in   Unknown
10:56 AM 12.9 °F -2.2 °F 1.0 °F 59% 30.12 in - NNW 13.8 mph 28.8 mph 0.01 in   Unknown
11:56 AM 10.9 °F -3.4 °F 3.9 °F 73% 30.14 in - NW 11.5 mph 23.0 mph N/A   Unknown
12:56 PM 10.9 °F -5.9 °F 3.0 °F 70% 30.13 in - NW 16.1 mph 26.5 mph 0.02 in   Unknown
1:56 PM 12.9 °F -3.9 °F 1.9 °F 62% 30.13 in - NW 17.3 mph 25.3 mph 0.01 in   Unknown
2:56 PM 10.0 °F -3.7 °F 3.0 °F 73% 30.14 in - West 10.4 mph 17.3 mph N/A   Unknown
3:56 PM 10.0 °F -0.9 °F 3.0 °F 73% 30.15 in - West 6.9 mph 20.7 mph 0.05 in   Unknown
4:56 PM 10.0 °F -2.9 °F -2.0 °F 58% 30.16 in - West 9.2 mph 16.1 mph N/A   Unknown
5:56 PM 8.1 °F -2.0 °F -5.1 °F 55% 30.16 in - WSW 5.8 mph - N/A   Unknown
6:56 PM 7.0 °F -3.3 °F -5.1 °F 58% 30.16 in - SW 5.8 mph - N/A   Unknown
7:56 PM 7.0 °F -6.6 °F -6.0 °F 55% 30.15 in - WSW 9.2 mph - N/A   Unknown
8:56 PM 6.1 °F -7.8 °F -6.0 °F 58% 30.14 in - SW 9.2 mph - N/A   Unknown
9:56 PM 3.9 °F -10.4 °F -6.0 °F 64% 30.13 in - WSW 9.2 mph - N/A   Unknown
10:56 PM 3.0 °F -11.5 °F -8.0 °F 60% 30.12 in - WSW 9.2 mph - N/A   Unknown
11:56 PM 3.0 °F -10.5 °F -8.0 °F 60% 30.09 in - WSW 8.1 mph - N/A   Unknown